Location: Newark
(33.6439°N, 114.9881°W)
Time: 12:59:45
(UTC+00:00)

A-11 Canister half - Pass Details

Date: 28 August 2019
Orbit: 1527 x 1682 km, 47.3° (Epoch: 22 September)

Event Time Altitude Azimuth Distance (km) Brightness Sun altitude
Rises 22:35:48 0° 303° (WNW) 4,909 12.0 43.3°
Reaches altitude 10° 22:39:07 10° 308° (NW) 3,932 11.6 42.7°
Maximum altitude 22:48:57 52° 23° (NNE) 2,023 9.9 40.7°
Drops below altitude 10° 22:58:44 10° 98° (E) 3,923 10.8 38.8°
Sets 23:02:01 0° 104° (ESE) 4,897 11.2 38.1°
